EHI
0 0 0 0 0 0 0 0 0 0 0 0 0 0 0 0 0 0 0 0 0 0 0 0 0 0 0 0 0 0 0 0 0 0 0 0 0 0
0 0 0 0 0 0 0 0 0 0 0 0 0 0 0 0 0 0 0 0 0 0 0 0 0 0 0 0 0 0 0 0 0 0 0 0 0 0
0 0 0 0 0 0 0 0 0 0 0 0 0 0 0 0 0 0 0 0 0 0 0 0 0 0 0 0 0 0 0 0 0 0 0 0 0 0
0 0 0 0 0 0 0 0 0 0 0 0 0 0 0 0 0 0 0 0 0 0 0 0 0 0 0 0 0 0 0 0 0 0 0 0 0 0
0 0 0 0 0 0 0 0 0 0 0 0 0 0 0 0 0 0 0 0 0 0 0 0 0 0 0 0 0 0 0 0 0 0 0 0 0 0
0 0 0 0 0 0 0 0 0 0 0 0 0 0 0 0 0 0 0 0 0 0 0 0 0 0 0 0 0 0 0 0 0 0 0 0 0 0
0 0 0 0 0 0 0 0 0 0 0 0 0 0 0 0 0 0 0 0 0 0 0 0 0 0 0 0 0 0 0 0 0 0 0 0 0 0
0 0 0 0 0 0 0 0 0 0 0 0 0 0 0 0 0 0 0 0 0 0 0 0 0 0 0 0 0 0 0 0 0 0 0 0 0 0
0 0 0 0 0 0 0 0 0 0 0 0 0 0 0 0 0 0 0 0 0 0 0 0 0 0 0 0 0 0 0 0 0 0 0 0 0 0
0 0 0 0 0 0 0 0 0 0 0 0 0 0 0 0 0 0 0 0 0 0 0 0 0 0 0 0 0 0 0 0 0 0 0 0 0 0
0 0 0 0 0 0 0 0 0 0 0 0 0 0 0 0 0 0 0 0 0 0 0 0 0 0 0 0 0 0 0 0 0 0 0 0 0 0
0 0 0 0 0 0 0 0 0 0 0 0 0 0 0 0 0 0 0 0 0 0 0 0 0 0 0 0 0 0 0 0 0 0 0 0 0 0
0 0 0 0 0 0 0 0 0 0 0 0 0 0 0 0 0 0 0 0 0 0 0 0 0 0 0 0 0 0 0 0 0 0 0 0 0 0
0 0 0 0 0 0 0 0 0 0 0 0 0 0 0 0 0 0 0 0 0 0 0 0 0 0 0 0 0 0 0 0 0 0 0 0 0 0
0 0 0 0 0 0 0 0 0 0 0 0 0 0 0 0 0 0 0 0 0 0 0 0 0 0 0 0 0 0 0 0 0 0 0 0 0 0
0 0 0 0 0 0 0 0 0 0 0 0 0 0 0 0 0 0 0 0 0 0 0 0 0 0 0 0 0 0 0 0 0 0 0 0 0 0
0 0 0 0 0 0 0 0 0 0 0 0 0 0 0 0 0 0 0 0 0 0 0 0 0 0 0 0 0 0 0 0 0 0 0 0 0 0
0 0 0 0 0 0 0 0 0 0 0 0 0 0 0 0 0 0 0 0 0 0 0 0 0 0 0 0 0 0 0 0 0 0 0 0 0 0
0 0 0 0 0 0 0 0 0 0 0 0 0 0 0 0 0 0 0 0 0 0 0 0 0 0 0 0 0 0 0 0 0 0 0 0 0 0
0 0 0 0 0 0 0 0 0 0 0 0 0 0 0 0 0 0 0 0 0 0 0 0 0 0 0 0 0 0 0 0 0 0 0 0 0 0
0 0 0 0 0 0 0 0 0 0 0 0 0 0 0 0 0 0 0 0 0 0 0 0 0 0 0 0 0 0 0 0 0 0 0 0 0 0
0 0 0 0 0 0 0 0 0 0 0 0 0 0 0 0 0 0 0 0 0 0 0 0 0 0 0 0 0 0 0 0 0 0 0 0 0 0
0 0 0 0 0 0 0 0 0 0 0 0 0 0 0 0 0 0 0 0 0 0 0 0 0 0 0 0 0 0 0 0 0 0 0 0 0 0
Wind_Speed
15 15 13 11 11 11 11 12 13 15 16 18 14 13 12 13 17 17 18 24 29 31 32 33 34 35 36 36 36 36 35 35 35 35 35 33 32 30
12 14 14 12 11 11 12 12 13 14 16 15 15 16 16 14 20 20 20 28 31 32 33 34 34 35 35 35 36 35 35 35 35 34 35 33 31 29
15 15 16 15 12 12 12 12 13 13 17 18 16 17 20 20 18 18 18 19 18 29 32 34 34 35 35 35 35 35 35 34 34 34 34 32 30 28
17 16 17 13 16 14 12 14 14 15 16 20 18 17 20 20 20 20 18 17 18 26 32 34 34 35 35 35 35 34 34 33 33 32 32 31 30 28
17 16 16 15 17 14 15 14 13 13 15 17 19 17 16 16 19 19 20 17 18 21 28 30 32 34 34 34 33 33 32 32 32 31 30 30 30 28
16 16 16 16 17 16 14 15 14 15 16 16 17 16 16 17 16 15 15 15 15 15 20 22 26 31 32 33 33 32 31 31 30 30 28 29 28 26
16 16 17 19 21 18 14 14 14 14 14 14 15 16 16 14 14 14 16 16 17 14 16 16 16 16 18 23 27 29 29 29 29 28 27 27 27 26
16 16 16 19 22 26 27 26 22 17 16 15 15 17 18 18 16 15 16 17 18 13 14 15 14 15 15 14 21 26 26 27 27 27 27 27 26 25
16 14 13 13 18 14 19 24 23 26 26 19 19 19 20 18 19 20 18 19 19 15 15 17 15 16 14 15 25 27 27 27 27 26 26 26 25 24
16 16 15 14 13 14 13 15 16 16 18 14 15 17 17 18 17 18 19 19 19 15 15 16 15 15 14 14 22 26 27 28 27 27 26 26 25 24
16 15 15 15 18 20 15 16 17 14 17 22 23 23 27 28 23 15 15 15 17 14 11 13 14 14 14 14 16 24 26 27 28 27 27 26 24 23
13 13 19 19 19 19 15 14 16 13 12 13 16 17 17 18 22 15 13 13 15 14 10 10 11 10 11 10 9 9 13 20 25 27 27 25 24 16
10 10 10 17 19 19 18 13 15 15 13 13 12 12 12 11 11 11 11 12 14 14 11 10 11 11 11 11 10 9 8 9 11 16 22 25 25 20
10 9 9 15 16 18 14 14 18 16 10 10 11 11 11 11 10 11 13 13 14 17 15 14 13 12 12 12 10 8 7 7 8 9 11 18 22 25
10 13 13 15 14 12 14 15 14 9 9 10 11 11 11 11 12 11 12 13 14 15 15 16 15 13 12 12 11 10 8 6 6 7 9 11 12 13
12 12 15 15 11 11 11 9 7 7 8 9 10 11 11 11 11 10 11 10 11 11 11 13 14 14 13 13 11 10 9 6 5 5 6 8 10 12
9 6 6 6 7 7 6 7 6 7 8 8 9 10 10 11 11 10 10 10 11 11 10 8 9 10 13 12 11 10 9 8 7 6 6 7 9 11
11 7 7 7 7 7 6 6 6 7 7 8 9 9 10 11 11 10 10 10 10 10 10 9 7 6 7 10 15 12 9 8 6 6 7 7 9 10
11 8 7 7 6 6 6 6 7 7 7 8 9 9 10 10 11 11 10 10 10 10 9 8 7 7 8 7 7 15 10 7 6 6 6 7 8 9
8 8 7 6 6 6 6 6 6 6 7 7 8 9 9 10 10 11 10 11 11 11 10 8 7 7 8 7 6 4 13 9 6 5 5 6 6 6
8 7 6 6 5 5 5 5 6 7 7 8 8 9 9 10 10 11 11 15 13 10 10 9 8 11 8 7 8 7 6 13 11 6 5 6 6 7
7 6 6 6 5 5 5 5 6 7 7 7 8 8 8 9 11 12 11 11 10 10 11 10 9 8 7 8 9 8 6 5 11 17 15 11 5 6
7 6 5 5 5 5 5 5 7 7 7 7 8 8 9 9 10 10 11 11 11 11 11 10 8 7 7 8 9 8 8 7 5 7 9 14 16 15
Wind_Direction
222 225 231 238 240 244 249 254 266 279 282 286 287 285 285 282 279 277 276 276 277 277 277 276 276 276 277 277 278 279 281 283 285 287 289 287 281 276
220 226 231 235 240 243 246 250 252 261 273 280 285 285 286 281 279 278 277 277 277 276 276 276 276 275 276 276 276 277 278 279 281 283 286 284 282 281
219 224 232 235 240 244 246 249 251 253 264 274 279 283 285 283 281 277 275 275 273 273 274 274 274 274 274 274 273 274 275 276 277 279 282 283 283 282
220 224 232 233 239 244 247 250 252 253 261 273 279 282 283 283 282 281 278 275 273 274 274 274 274 274 273 273 272 271 271 272 273 275 278 282 284 283
220 224 230 233 240 243 247 251 253 256 259 266 275 279 281 281 283 281 279 276 275 274 274 273 273 273 273 272 271 270 269 269 269 270 272 276 280 281
222 226 230 232 239 244 249 253 256 259 262 265 272 278 281 283 282 283 284 282 279 278 275 274 273 273 271 271 269 268 266 266 266 266 266 270 274 276
223 228 232 235 238 242 244 250 253 257 263 269 275 281 284 288 288 289 289 288 283 280 279 274 273 269 270 268 266 264 262 262 262 262 262 265 269 271
223 228 234 240 245 249 253 257 259 264 271 275 279 282 286 290 293 291 290 288 287 282 278 276 272 269 266 262 261 261 260 258 259 258 258 260 263 267
221 227 232 236 242 244 256 264 269 271 271 272 277 281 288 292 292 290 286 284 283 288 285 278 273 269 266 262 263 260 257 256 255 254 253 254 256 260
223 227 235 240 240 244 250 258 260 263 264 266 268 275 279 283 283 286 289 287 283 278 272 274 274 272 270 265 263 258 254 252 250 248 248 248 250 255
226 230 235 244 249 251 254 261 267 267 269 272 272 277 282 288 291 291 289 287 287 285 278 273 276 278 275 269 262 257 252 248 245 242 241 242 244 248
226 229 235 241 248 253 255 262 270 277 280 282 281 283 284 284 286 281 282 282 284 287 280 272 275 279 278 268 264 259 251 245 240 236 235 234 235 237
223 225 229 238 247 254 259 263 272 283 287 286 286 284 283 281 279 276 270 271 275 274 277 281 278 277 274 284 289 280 260 247 233 229 228 227 228 227
223 226 231 238 247 256 264 270 280 288 286 286 287 288 291 292 292 288 280 272 266 270 273 271 269 269 273 277 280 282 272 253 235 223 214 215 221 224
223 229 235 243 252 261 267 275 282 282 281 282 286 291 294 294 293 289 284 276 271 266 264 259 256 258 258 263 271 279 285 269 248 229 214 206 204 208
226 231 237 246 251 261 267 270 268 269 276 280 286 291 295 296 295 296 295 295 290 285 271 259 254 253 253 255 259 265 269 272 263 239 226 212 203 202
205 212 220 230 239 245 251 258 263 268 273 278 286 293 298 300 300 300 296 294 291 293 295 285 260 249 249 252 255 254 256 256 252 249 232 214 205 203
200 208 219 228 238 247 255 262 266 271 276 283 288 293 298 301 302 301 298 295 294 294 294 294 286 265 247 241 232 247 250 252 247 238 229 214 204 202
206 213 221 229 236 243 252 261 271 277 283 283 286 292 297 300 301 302 302 299 297 296 294 291 282 268 261 266 240 214 230 240 235 228 222 216 208 200
209 216 222 227 232 240 249 260 271 279 280 283 288 292 297 300 302 303 303 302 301 299 296 289 277 266 262 275 289 255 217 234 234 228 221 222 224 219
204 214 219 223 229 237 248 259 269 276 282 287 290 294 298 301 303 303 302 302 302 298 297 295 288 284 277 272 265 259 238 220 233 239 227 215 209 202
202 209 213 219 225 233 246 258 268 276 283 285 291 297 300 302 303 304 303 303 301 298 297 293 287 273 250 244 251 260 261 239 229 242 255 262 230 199
198 204 208 212 220 229 243 257 268 278 285 291 294 298 303 304 304 303 303 302 301 300 300 297 290 271 253 246 249 253 253 244 227 216 234 247 256 269